Tracking 30995 objects as of 5-Jul-2025
HD Live streaming from Space Station
objects crossing your sky now

STARLINK-11263

Track STARLINK-11263 now!
10-day predictions
STARLINK-11263 is classified as:


NORAD ID: 60725
Int'l Code: 2024-152F
Perigee: 366.1 km
Apogee: 367.6 km
Inclination: 53.2 °
Period: 91.7 minutes
Semi major axis: 6737 km
RCS: Unknown
Launch date: August 28, 2024
Source: United States (US)
Launch site: AIR FORCE EASTERN TEST RANGE (AFETR)
Your satellite tracking list
STARLINK-3893
Track 1 satellite(s)




NASA's NSSDC Master Catalog

Two Line Element Set (TLE):
1 60725U 24152F   25186.58283204 -.00000127  00000-0  38138-5 0  9997
2 60725  53.1579 254.4383 0001100  78.9561 281.1581 15.69707257 50021
Source of the keplerian elements: AFSPC